Weather History for Bentonville, AR

Change the Weather History Date:

Sunday, February 17, 2013

  Actual Average Record
Temperature  
Mean Temperature 45 °F -  
Max Temperature 62 °F 48 °F 74 °F (1976)
Min Temperature 28 °F 26 °F 7 °F (1979)
Degree Days  
Heating Degree Days 20    
Moisture  
Dew Point 23 °F    
Average Humidity 42    
Maximum Humidity 64    
Minimum Humidity 27    
Precipitation  
Precipitation 0.00 in - - ()
Sea Level Pressure  
Sea Level Pressure 29.98 in    
Wind  
Wind Speed 7 mph (South)    
Max Wind Speed 20 mph    
Max Gust Speed 26 mph    
Visibility 10 miles    
Events      
Averages and records for this station are not official NWS values.
T = Trace of Precipitation, MM = Missing Value Source: NWS Daily Summary

Daily Weather History Graph

Daily Weather History Graph

Search for Another Location

Airport:

Trip Planner

Search our weather history database for the weather conditions in past years. The results will help you decide how hot, cold, wet, or windy it might be!

Date:

Astronomy

Feb. 17, 2013 Rise Set
Actual Time 7:02 AM CST 6:00 PM CST
Civil Twilight 6:35 AM CST 6:26 PM CST
Nautical Twilight 6:05 AM CST 6:56 PM CST
Astronomical Twilight 5:35 AM CST 7:26 PM CST
Moon 11:09 AM CST (2/17) 12:43 AM CST (2/17)
Length of Visible Light 11h 50m
Length of Day
10h 58m
Waxing Crescent, 49% of the Moon is Illuminated
Feb 17
Waxing Crescent
Feb 17
First Quarter
Feb 25
Full
Mar 4
Last Quarter
Mar 11
New

Hourly Weather History & Observations

Time (CST) Temp. Windchill Dew Point Humidity Pressure Visibility Wind Dir Wind Speed Gust Speed Precip Events Conditions
12:15 AM 32.0 °F 27.5 °F 15.8 °F 51% 30.10 in 10.0 mi SE 4.6 mph - N/A   Mostly Cloudy
12:35 AM 30.2 °F 26.7 °F 15.8 °F 55% 30.09 in 10.0 mi SE 3.5 mph - N/A   Partly Cloudy
12:55 AM 30.2 °F 24.3 °F 17.6 °F 60% 30.09 in 10.0 mi SE 5.8 mph - N/A   Partly Cloudy
1:15 AM 33.8 °F 28.6 °F 17.6 °F 52% 30.08 in 10.0 mi SSE 5.8 mph - N/A   Mostly Cloudy
1:35 AM 30.2 °F - 15.8 °F 55% 30.08 in 10.0 mi Calm Calm - N/A   Mostly Cloudy
1:55 AM 30.2 °F 24.3 °F 15.8 °F 55% 30.08 in 10.0 mi SE 5.8 mph - N/A   Partly Cloudy
2:15 AM 30.2 °F 25.4 °F 15.8 °F 55% 30.07 in 10.0 mi SSE 4.6 mph - N/A   Partly Cloudy
2:35 AM 30.2 °F 25.4 °F 14.0 °F 51% 30.07 in 10.0 mi SSE 4.6 mph - N/A   Clear
2:55 AM 30.2 °F 25.4 °F 14.0 °F 51% 30.06 in 10.0 mi SSE 4.6 mph - N/A   Clear
3:15 AM 30.2 °F 24.3 °F 14.0 °F 51% 30.06 in 10.0 mi SSE 5.8 mph - N/A   Clear
3:35 AM 30.2 °F 24.3 °F 14.0 °F 51% 30.05 in 10.0 mi SSE 5.8 mph - N/A   Clear
3:55 AM 30.2 °F 26.7 °F 14.0 °F 51% 30.05 in 10.0 mi SSE 3.5 mph - N/A   Clear
4:15 AM 30.2 °F - 14.0 °F 51% 30.04 in 10.0 mi Calm Calm - N/A   Clear
4:35 AM 30.2 °F 25.4 °F 15.8 °F 55% 30.05 in 10.0 mi SE 4.6 mph - N/A   Scattered Clouds
4:55 AM 30.2 °F 25.4 °F 14.0 °F 51% 30.05 in 10.0 mi SSE 4.6 mph - N/A   Partly Cloudy
5:15 AM 30.2 °F 25.4 °F 15.8 °F 55% 30.05 in 10.0 mi SE 4.6 mph - N/A   Clear
5:35 AM 30.2 °F 25.4 °F 15.8 °F 55% 30.05 in 10.0 mi SE 4.6 mph - N/A   Partly Cloudy
5:55 AM 30.2 °F 25.4 °F 15.8 °F 55% 30.05 in 10.0 mi SSE 4.6 mph - N/A   Partly Cloudy
6:15 AM 28.4 °F 23.3 °F 15.8 °F 59% 30.05 in 10.0 mi SSE 4.6 mph - N/A   Clear
6:35 AM 28.4 °F 22.2 °F 15.8 °F 59% 30.04 in 10.0 mi SE 5.8 mph - N/A   Clear
6:55 AM 28.4 °F 22.2 °F 15.8 °F 59% 30.05 in 10.0 mi SSE 5.8 mph - N/A   Clear
7:15 AM 28.4 °F 22.2 °F 17.6 °F 64% 30.04 in 10.0 mi SSE 5.8 mph - N/A   Clear
7:35 AM 30.2 °F 24.3 °F 17.6 °F 60% 30.04 in 10.0 mi SE 5.8 mph - N/A   Clear
7:55 AM 33.8 °F 29.6 °F 19.4 °F 56% 30.04 in 10.0 mi SSE 4.6 mph - N/A   Clear
8:15 AM 37.4 °F 32.8 °F 19.4 °F 48% 30.04 in 10.0 mi SSE 5.8 mph - N/A   Clear
8:35 AM 39.2 °F 35.0 °F 21.2 °F 49% 30.04 in 10.0 mi South 5.8 mph - N/A   Clear
8:55 AM 42.8 °F 38.0 °F 21.2 °F 42% 30.05 in 10.0 mi South 8.1 mph - N/A   Clear
9:15 AM 44.6 °F 39.2 °F 23.0 °F 43% 30.04 in 10.0 mi South 10.4 mph - N/A   Clear
9:35 AM 46.4 °F 41.9 °F 24.8 °F 43% 30.03 in 10.0 mi South 9.2 mph - N/A   Clear
9:55 AM 48.2 °F - 24.8 °F 40% 30.03 in 10.0 mi South 12.7 mph - N/A   Clear
10:15 AM 51.8 °F - 24.8 °F 35% 30.03 in 10.0 mi South 12.7 mph - N/A   Clear
10:35 AM 53.6 °F - 26.6 °F 35% 30.02 in 10.0 mi South 13.8 mph 17.3 mph N/A   Clear
10:55 AM 53.6 °F - 26.6 °F 35% 30.02 in 10.0 mi South 9.2 mph - N/A   Clear
11:15 AM 55.4 °F - 26.6 °F 33% 30.01 in 10.0 mi SSW 11.5 mph 18.4 mph N/A   Clear
11:35 AM 55.4 °F - 26.6 °F 33% 30.00 in 10.0 mi SSW 13.8 mph 19.6 mph N/A   Clear
11:55 AM 57.2 °F - 26.6 °F 31% 29.99 in 10.0 mi South 11.5 mph 17.3 mph N/A   Clear
12:15 PM 57.2 °F - 26.6 °F 31% 29.98 in 10.0 mi SSW 12.7 mph 19.6 mph N/A   Clear
12:35 PM 57.2 °F - 26.6 °F 31% 29.97 in 10.0 mi South 15.0 mph 19.6 mph N/A   Clear
12:55 PM 59.0 °F - 26.6 °F 29% 29.96 in 10.0 mi SSW 12.7 mph 18.4 mph N/A   Clear
1:15 PM 60.8 °F - 28.4 °F 29% 29.94 in 10.0 mi South 11.5 mph 19.6 mph N/A   Clear
1:35 PM 60.8 °F - 28.4 °F 29% 29.93 in 10.0 mi SSW 11.5 mph 19.6 mph N/A   Clear
1:55 PM 62.6 °F - 28.4 °F 27% 29.92 in 10.0 mi South 16.1 mph 21.9 mph N/A   Clear
2:15 PM 62.6 °F - 28.4 °F 27% 29.92 in 10.0 mi South 11.5 mph 19.6 mph N/A   Clear
2:35 PM 62.6 °F - 28.4 °F 27% 29.91 in 10.0 mi SSW 16.1 mph 19.6 mph N/A   Clear
2:55 PM 62.6 °F - 28.4 °F 27% 29.90 in 10.0 mi SSW 13.8 mph - N/A   Clear
3:15 PM 62.6 °F - 28.4 °F 27% 29.89 in 10.0 mi SSW 16.1 mph 21.9 mph N/A   Clear
3:35 PM 62.6 °F - 28.4 °F 27% 29.89 in 10.0 mi SSW 16.1 mph 19.6 mph N/A   Clear
3:55 PM 62.6 °F - 28.4 °F 27% 29.88 in 10.0 mi SSW 15.0 mph 23.0 mph N/A   Clear
4:15 PM 62.6 °F - 28.4 °F 27% 29.88 in 10.0 mi SSW 16.1 mph 21.9 mph N/A   Clear
4:35 PM 62.6 °F - 28.4 °F 27% 29.87 in 10.0 mi SSW 19.6 mph 26.5 mph N/A   Clear
4:55 PM 62.6 °F - 28.4 °F 27% 29.87 in 10.0 mi South 12.7 mph 23.0 mph N/A   Clear
5:15 PM 60.8 °F - 28.4 °F 29% 29.87 in 10.0 mi South 10.4 mph 19.6 mph N/A   Clear
5:35 PM 60.8 °F - 28.4 °F 29% 29.86 in 10.0 mi South 12.7 mph - N/A   Clear
5:55 PM 59.0 °F - 28.4 °F 31% 29.86 in 10.0 mi South 8.1 mph - N/A   Clear
6:15 PM 55.4 °F - 28.4 °F 36% 29.86 in 10.0 mi South 8.1 mph - N/A   Clear
6:35 PM 55.4 °F - 28.4 °F 36% 29.86 in 10.0 mi South 9.2 mph - N/A   Clear
6:55 PM 55.4 °F - 28.4 °F 36% 29.87 in 10.0 mi South 10.4 mph - N/A   Clear
7:15 PM 53.6 °F - 28.4 °F 38% 29.86 in 10.0 mi South 11.5 mph - N/A   Clear
7:35 PM 53.6 °F - 28.4 °F 38% 29.86 in 10.0 mi SSE 11.5 mph - N/A   Clear
7:55 PM 53.6 °F - 28.4 °F 38% 29.86 in 10.0 mi SSE 11.5 mph - N/A   Clear
8:15 PM 53.6 °F - 28.4 °F 38% 29.85 in 10.0 mi SSE 12.7 mph - N/A   Clear